This demonstration page uses our WeatherBlox Daily Observations layout. Learn more.

Hourly Observations for February 23, 2017

Temp ( °F °C ) Dew Point ( °F °C ) Humidity (%) Winds ( mph kmh ) Pressure ( in mb ) Visibility ( mi km ) Precip ( " mm )
12:15 am 00:15 Clear 42 5.4 31 -0.7 65 65 NE 15 24 29.8 1009 10 16.0934 0 0
12:35 am 00:35 Clear 42 5.3 31 -0.5 67 67 NE 14 22 29.8 1009 10 16.0934 0 0
12:55 am 00:55 Clear 39 4 30 -1 70 70 NE 13 20 29.8 1009 10 16.0934 0 0
1:15 am 01:15 Clear 38 3.6 30 -1.1 72 72 NE 14 22 29.8 1009 10 16.0934 0 0
1:35 am 01:35 Clear 38 3.4 30 -1 73 73 NE 14 22 29.83 1010 10 16.0934 0 0
1:55 am 01:55 Clear 38 3.3 31 -0.3 78 78 NE 14 22 29.83 1010 10 16.0934 0 0
2:15 am 02:15 Clear 39 3.7 32 0 77 77 NE 15 24 29.8 1009 10 16.0934 0 0
2:35 am 02:35 Clear 39 3.9 33 0.6 79 79 NE 17 28 29.8 1009 10 16.0934 0 0
2:55 am 02:55 Partly Cloudy 38 3.6 34 1 83 83 NE 20 31 29.8 1009 10 16.0934 0 0
3:15 am 03:15 Cloudy 39 3.8 35 1.9 88 88 NE 22 35 29.8 1009 10 16.0934 0 0
3:35 am 03:35 Cloudy 39 4 36 2.2 88 88 NE 29 46 29.8 1009 10 16.0934 0 0
3:55 am 03:55 Cloudy 39 3.7 36 2 89 89 NE 25 41 29.8 1009 10 16.0934 0 0
4:15 am 04:15 Cloudy 38 3.6 35 1.7 88 88 NE 28 44 29.8 1009 10 16.0934 0 0
4:35 am 04:35 Cloudy 38 3.6 35 1.5 86 86 ENE 26 43 29.8 1009 10 16.0934 0 0
4:55 am 04:55 Cloudy 38 3.6 35 1.5 86 86 NE 18 30 29.77 1008 10 16.0934 0 0
5:15 am 05:15 Cloudy 38 3.2 34 1.2 87 87 NE 26 43 29.8 1009 10 16.0934 0 0
5:35 am 05:35 Cloudy 37 3 33 0.8 86 86 NE 21 33 29.8 1009 10 16.0934 0 0
5:55 am 05:55 Cloudy 37 2.8 33 0.8 87 87 NE 24 39 29.8 1009 10 16.0934 0 0
6:15 am 06:15 Cloudy 37 2.5 33 0.5 87 87 NE 22 35 29.8 1009 10 16.0934 0 0
6:35 am 06:35 Cloudy 36 2.3 32 0.1 86 86 ENE 24 39 29.8 1009 10 16.0934 0 0
6:55 am 06:55 Cloudy 35 1.7 32 0 89 89 NE 24 39 29.8 1009 10 16.0934 0 0
7:15 am 07:15 Cloudy 35 1.5 32 0 90 90 NE 24 39 29.8 1009 10 16.0934 0 0
7:35 am 07:35 Cloudy 34 1.1 32 0 92 92 NE 24 39 29.8 1009 10 16.0934 0 0
7:55 am 07:55 Cloudy with Mist and Fog 33 0.6 32 0 96 96 NE 25 41 29.77 1008 3 4.82802 0 0
8:15 am 08:15 Cloudy with Mist and Fog 33 0.3 32 -0.1 97 97 NE 23 37 29.77 1008 1.5 2.41401 0 0
8:35 am 08:35 Cloudy with Light Rain 32 0.2 32 -0.1 98 98 NE 20 31 29.77 1008 0.5 0.80467 0 0
8:55 am 08:55 Windy with Snow Likely 32 0.2 32 0 99 99 NE 22 35 29.77 1008 0.25 0.402335 0 0
9:15 am 09:15 Cloudy with Fog 32 0.2 32 0 99 99 NE 21 33 29.77 1008 0.5 0.80467 0 0
9:35 am 09:35 Cloudy with Mist and Fog 32 0.2 32 0 99 99 NE 24 39 29.77 1008 4 6.43736 0 0
9:55 am 09:55 Cloudy with Mist and Fog 32 0.2 32 0 99 99 NE 18 30 29.77 1008 1.25 2.011675 0 0
10:15 am 10:15 Cloudy with Mist and Fog 32 0.2 32 0 99 99 NE 22 35 29.74 1007 2.5 4.02335 0 0
10:35 am 10:35 Cloudy with Mist and Fog 33 0.3 32 0 98 98 NE 22 35 29.74 1007 2 3.21868 0 0
10:55 am 10:55 Cloudy with Mist and Fog 33 0.3 32 0 98 98 NE 23 37 29.74 1007 3 4.82802 0 0
11:15 am 11:15 Cloudy 33 0.7 32 0 95 95 ENE 22 35 29.71 1006 10 16.0934 0 0
11:35 am 11:35 Cloudy 33 0.8 32 -0.1 94 94 NE 22 35 29.71 1006 10 16.0934 0 0
11:55 am 11:55 Cloudy 33 0.7 31 -0.3 93 93 ENE 26 43 29.71 1006 10 16.0934 0 0
12:15 pm 12:15 Cloudy with Mist and Fog 33 0.5 31 -0.3 94 94 NE 24 39 29.68 1005 5 8.0467 0 0
12:35 pm 12:35 Cloudy 33 0.4 31 -0.4 94 94 NE 21 33 29.68 1005 7 11.26538 0 0
12:55 pm 12:55 Cloudy 33 0.5 31 -0.4 94 94 NE 21 33 29.68 1005 10 16.0934 0 0
1:15 pm 13:15 Cloudy 33 0.6 31 -0.5 92 92 NE 23 37 29.68 1005 10 16.0934 0 0
1:35 pm 13:35 Cloudy 33 0.3 31 -0.6 94 94 NE 20 31 29.65 1004 10 16.0934 0 0
1:55 pm 13:55 Cloudy 32 0.2 31 -0.6 94 94 NE 20 31 29.65 1004 7 11.26538 0 0
2:15 pm 14:15 Cloudy with Light Wintry Mix 32 0.1 31 -0.5 96 96 NNE 20 31 29.68 1005 4 6.43736 0 0
2:35 pm 14:35 Cloudy with Mist and Fog 32 0.1 31 -0.5 96 96 NE 21 33 29.65 1004 3 4.82802 0 0
2:55 pm 14:55 Cloudy with Light Snow 32 0.1 31 -0.5 96 96 NE 18 30 29.65 1004 3 4.82802 0 0
3:15 pm 15:15 Cloudy with Light Wintry Mix 32 0.1 31 -0.5 96 96 NNE 20 31 29.68 1005 1.5 2.41401 0 0
3:35 pm 15:35 Cloudy with Light Wintry Mix 32 0.1 31 -0.5 96 96 NNE 13 20 29.68 1005 1.5 2.41401 0 0
3:55 pm 15:55 Cloudy with Light Wintry Mix 32 0 31 -0.5 96 96 NE 15 24 29.68 1005 1.75 2.816345 0 0
4:15 pm 16:15 Cloudy with Light Wintry Mix 32 0.1 31 -0.4 96 96 NE 20 31 29.65 1004 2.5 4.02335 0 0
4:35 pm 16:35 Cloudy with Light Snow 32 0 31 -0.5 96 96 NE 16 26 29.68 1005 4 6.43736 0 0
4:55 pm 16:55 Cloudy 32 0 31 -0.7 95 95 NE 17 28 29.68 1005 10 16.0934 0 0
5:15 pm 17:15 Cloudy 32 0 31 -0.8 94 94 NE 21 33 29.68 1005 3 4.82802 0 0
5:35 pm 17:35 Cloudy 32 -0.1 30 -1 94 94 NE 18 30 29.68 1005 1.5 2.41401 0 0
5:55 pm 17:55 Cloudy with Light Snow 31 -0.3 30 -1.2 94 94 NNE 14 22 29.71 1006 1.75 2.816345 0 0
6:15 pm 18:15 Cloudy with Light Snow 31 -0.3 30 -1.2 94 94 NNE 16 26 29.71 1006 1.75 2.816345 0.01 0.254
6:35 pm 18:35 Cloudy with Light Snow 31 -0.5 30 -1.3 94 94 N 15 24 29.71 1006 2.5 4.02335 0.01 0.254
6:55 pm 18:55 Cloudy with Light Snow 31 -0.6 29 -1.5 94 94 N 10 17 29.77 1008 2.5 4.02335 0.01 0.254
7:15 pm 19:15 Cloudy with Light Snow 31 -0.7 29 -1.5 94 94 N 8 13 29.8 1009 5 8.0467 0 0
7:35 pm 19:35 Cloudy with Light Snow 30 -1 29 -1.8 94 94 N 9 15 29.8 1009 5 8.0467 0 0
7:55 pm 19:55 Cloudy 30 -1.2 28 -2.1 94 94 N 13 20 29.8 1009 7 11.26538 0 0
8:15 pm 20:15 Cloudy with Thunderstorms 30 -1.2 28 -2.3 92 92 N 9 15 29.8 1009 10 16.0934 0 0
8:35 pm 20:35 Cloudy with Nearby Thunderstorms 30 -1.3 28 -2.5 92 92 N 14 22 29.8 1009 10 16.0934 0 0
8:55 pm 20:55 Cloudy 30 -1.3 27 -2.6 91 91 N 14 22 29.83 1010 10 16.0934 0 0
9:15 pm 21:15 Cloudy with Mist and Fog 30 -1.3 28 -2.5 92 92 N 12 19 29.83 1010 5 8.0467 0 0
9:35 pm 21:35 Cloudy with Mist and Fog 29 -1.5 28 -2.5 93 93 N 14 22 29.83 1010 4 6.43736 0 0
9:55 pm 21:55 Cloudy with Mist and Fog 29 -1.5 28 -2.3 94 94 N 12 19 29.83 1010 4 6.43736 0 0
10:15 pm 22:15 Cloudy with Mist and Fog 29 -1.6 28 -2.5 94 94 N 12 19 29.83 1010 4 6.43736 0 0
10:35 pm 22:35 Cloudy with Mist and Fog 29 -1.8 27 -2.7 94 94 N 13 20 29.83 1010 5 8.0467 0 0
10:55 pm 22:55 Cloudy 28 -2 27 -3 93 93 N 16 26 29.83 1010 7 11.26538 0 0
11:15 pm 23:15 Cloudy 28 -2 26 -3.1 92 92 N 14 22 29.83 1010 7 11.26538 0 0
11:35 pm 23:35 Cloudy 28 -2.2 26 -3.3 92 92 N 15 24 29.83 1010 7 11.26538 0 0
11:55 pm 23:55 Cloudy with Mist and Fog 28 -2.4 26 -3.4 93 93 N 14 22 29.83 1010 5 8.0467 0 0

Powered by AerisWeather